www.pogodaiklimat.ru

Погода и климат >> Архив погоды >> Россия >> город Санкт-Петербург >> Кронштадт


ПОГОДА в Кронштадте

  • Прогноз погоды в Кронштадте
  • Монитор погоды в Кронштадте

АРХИВ ПОГОДЫ в Кронштадте

Время (UTC), дата Ветер
(напр.,м/с)
 
Видим.   Явления Облачность Т
(С)
Тd
(С)
f
(%)
Тe
(С)
Тes
(С)
Комфортность P
(гПа)
Po
(гПа)
Тmin
(С)
Tmax
(С)
R
(мм)
R24
(мм)
S
(см)
06 12.09 ЮЗ 6-10
{11}
20 км 8/0
[Ac trans Ci fib]
+15.3 +11.0 76 +14 +14 1018.0 1017.4 +14.3 0.4
09 12.09 ЮЗ 5-10
{11}
20 км 8/3 600 м
[Cu med, cong Ac trans Ci fib]
+18.0 +10.3 61 +18 +19 1017.6 1017.0
12 12.09 Ю 6-12
{13}
20 км 10/5 600 м
[Cb calv Ac As]
+18.8 +9.0 53 +19 +19 1016.1 1015.5
15 12.09 ЮЗ 7-13
{13}
20 км {ливн. осадки} 10/4 600 м
[Cb calv Ac As]
+18.4 +9.1 55 +18 +18 1015.0 1014.4
18 12.09 ЮЗ 5-10
{18}
20 км {ливн. осадки} 3/0
[Ac trans]
+16.4 +12.2 76 +15 +15 1014.3 1013.7 +19.5 0.0
21 12.09 -11
{12}
н/о н/о +15.4 +12.4 82 1014.0 1013.4
00 13.09 -12
{13}
н/о н/о +14.4 +11.6 83 1013.5 1012.9
03 13.09 -11
{14}
н/о н/о +14.3 +12.2 87 1012.2 1011.6 +13.8
06 13.09 ЮЗ 4-12
{10}
20 км 10/6 300 м
[Cb calv As op]
+15.1 +12.0 82 +14 +14 1010.9 1010.3 +13.0
09 13.09 ЮЗ 4-12
{12}
4000 м дождь 10/0 300 м
[As op]
+13.4 +11.5 88 +12 +13 1009.7 1009.1
12 13.09 ЮЗ 4-10
{12}
20 км {дождь} 8/3 300 м
[Cb calv Ac trans Ci fib]
+14.9 +11.4 80 +14 +15 1008.4 1007.8
15 13.09 ЮЗ 2
{10}
4000 м ливневой дождь 10/6 300 м
[Cb calv As trans]
+12.8 +10.5 86 +12 +12 1006.7 1006.1
18 13.09 СЗ 1 20 км {ливн. осадки} 8/8 300 м
[Cb calv]
+12.8 +12.1 96 +13 +13 1006.1 1005.5 +15.6 10
21 13.09 н/о н/о +12.5 +10.6 88 1006.9 1006.3
00 14.09
{10}
н/о н/о +11.5 +7.6 77 1008.7 1008.1
03 14.09 н/о н/о +11.2 +7.9 80 1009.4 1008.8 +11.1
06 14.09 З 4 10 км 10/8 300 м
[Cb calv]
+12.7 +8.5 76 +11 +11 1010.2 1009.6 +9.9 0.9
09 14.09 З 5-11
{11}
10 км 4/4 600 м
[Cu med, cong]
+13.1 +5.7 61 +11 +13 1011.4 1010.8
12 14.09 З 6-12
{13}
10 км 6/6 600 м
[Cu med, cong]
+14.1 +5.4 56 +12 +13 1011.7 1011.1
15 14.09 З 5-12
{12}
10 км слаб. ливневой дождь 10/10 300 м
[Cb calv]
+13.6 +6.6 63 +12 +12 1011.7 1011.1
18 14.09 СЗ 2 10 км {ливн. осадки} 6/3 300 м
[Cb calv Ac trans]
+13.1 +5.4 60 +13 +13 1012.4 1011.8 +14.4 0.0
21 14.09 н/о н/о +11.1 +6.2 72 1013.2 1012.5
00 15.09 н/о н/о +10.1 +6.0 76 1012.7 1012.0
03 15.09 н/о н/о +9.5 +7.4 87 1011.2 1010.6 +9.4
06 15.09 Ю 4 20 км 10/0
[Ac As]
+9.5 +6.7 83 +7 +7 1007.5 1006.9 +9.2
09 15.09 Ю 4
{13}
4000 м слаб. дождь 10/0 600 м
[As op]
+9.1 +7.8 92 +6 +7 1002.3 1001.7
12 15.09 Ю 5-10
{10}
4000 м слаб. дождь 10/10 300 м
[Frnb Ns]
+10.0 +8.6 91 +7 +7 996.4 995.8
15 15.09 Ю 7-12
{13}
4000 м дождь 10/10 300 м
[Frnb Ns]
+11.2 +10.0 92 +8 +8 988.7 988.1
18 15.09 ЮЗ 7-14
{16}
20 км в посл. час ливневой дождь 6/6 600 м
[Cb calv]
+13.0 +9.9 81 +10 +10 987.6 987.0 +13.1 4
21 15.09 -13
{17}
н/о н/о +12.0 +9.0 82 987.9 987.3
00 16.09 -12
{15}
н/о н/о +10.8 +9.0 89 987.7 987.1
03 16.09 -13
{15}
н/о н/о +10.3 +8.7 90 987.0 986.4 +10.3
06 16.09 З 4-10
{11}
20 км в посл. час ливневой дождь 8/8 300 м
[Cb calv]
+10.9 +8.7 86 +8 +9 986.4 985.8 +9.0 3
09 16.09 З 6-12
{12}
20 км {ливн. осадки} 8/8 300 м
[Cb calv]
+12.3 +6.2 66 +10 +10 986.9 986.3
12 16.09 СЗ 5-12
{13}
20 км {ливн. осадки} 10/6 300 м
[Cb calv Ac trans Ci fib]
+11.5 +6.7 72 +9 +10 988.3 987.7
15 16.09 СЗ 5
{12}
20 км 10/4 300 м
[Cb calv As trans]
+11.5 +7.6 77 +9 +9 990.6 990.0
18 16.09 С 3 20 км 10/6 300 м
[Sc Ac und]
+10.3 +7.2 81 +8 +8 992.3 991.7 +12.6 0.0
21 16.09 н/о н/о +9.6 +5.8 77 993.2 992.6
00 17.09 н/о н/о +9.0 +5.9 81 993.5 992.9
03 17.09 н/о н/о +8.2 +6.3 88 993.5 992.9 +8.2
06 17.09 З 2 10 км 10/10 500 м
[Sc]
+8.0 +6.0 87 +6 +6 993.9 993.3 +6.9
09 17.09 СЗ 2 10 км 10/8 300 м
[Cu Sc Ac trans]
+10.0 +6.6 79 +9 +9 994.4 993.8
12 17.09 ЮЗ 3 10 км слаб. ливневой дождь 10/10 300 м
[Cb calv]
+9.6 +7.9 89 +7 +7 995.3 994.7
15 17.09 ЮЗ 2 10 км в посл. час ливневой дождь 10/5 300 м
[Cb calv Ac trans]
+9.9 +8.3 90 +8 +8 995.5 994.9
18 17.09 СВ 1 10 км в посл. час ливневой дождь 10/8 300 м
[Cb calv Ac trans]
+9.9 +7.8 87 +9 +9 996.0 995.4 +10.6 2
21 17.09 СВ 5
{10}
н/о н/о +8.8 +7.7 93 +5 +5 996.9 996.3
00 18.09 СВ 5 н/о н/о +9.2 +7.6 90 +6 +6 997.3 996.6
03 18.09 н/о н/о +9.1 +6.6 84 998.0 997.4 +8.8
06 18.09 СВ 2 20 км 9/6 300 м
[Frnb Ac As]
+9.0 +6.4 84 +7 +8 999.0 998.4 +8.3
09 18.09 СВ 4 20 км 9/5 300 м
[Cb calv Ac As]
+9.9 +5.5 74 +7 +8 1001.3 1000.7
12 18.09 С 5 20 км 6/4 600 м
[Cb calv Ac trans Ci fib]
+11.2 +3.2 58 +9 +10 1003.0 1002.4
15 18.09 СВ 3 20 км 8/4 600 м
[Cu Sc Ac trans Ci fib]
+10.5 +2.3 57 +9 +9 1004.6 1004.0
18 18.09 СВ 3 20 км 8/3 600 м
[Sc Ac trans Ci fib]
+9.0 +2.9 66 +7 +7 1006.5 1005.9 +11.5
21 18.09
{10}
н/о н/о +7.3 +2.0 69 1008.1 1007.5
00 19.09 н/о н/о +6.5 +2.9 78 1009.3 1008.7
03 19.09 н/о н/о +6.8 +2.6 75 1010.1 1009.5 +6.5

 

Местоположение метеостанции Кронштадт (город Санкт-Петербург, Россия): широта 59.98 долгота 29.76 высота над уровнем моря 5 м.

В архиве по умолчанию представлена погода в Кронштадте за последнюю неделю. Архивные данные за месяц целиком и за предыдущие месяцы, начиная с января 2011 года, Вы можете получить, выбрав интересующий диапазон дат из раскрывающегося списка и нажав кнопку "Ввод!".


*Определитесь, кто Вы:
робот инопланетянин человек

Внимание! Время в таблицах - всемирное. Для получения местного времени необходимо прибавить поправку, которая равна 3 ч.

Смотрите также архив погоды в соседних городах и на ближайших метеорологических станциях:

Погода в Ломоносове (город Санкт-Петербург, Россия) (7 км)
Погода в Лисьем Носу (город Санкт-Петербург, Россия) (13 км)
Погода в Санкт-Петербурге (город Санкт-Петербург, Россия) (30 км)
Погода в Шепелево (Ленинградская область, Россия) (30 км)
Погода в Рощино (Ленинградская область, Россия) (31 км)
Погода в Сосновом Бору (Ленинградская область, Россия) (37 км)
Погода в Озерках (Ленинградская область, Россия) (49 км)
Погода в Воейково (город Санкт-Петербург, Россия) (52 км)
Погода в Волосово (Ленинградская область, Россия) (63 км)
Погода в Шлиссельбурге (Ленинградская область, Россия) (69 км)

Пояснения к столбцам:

Ветер - указаны скорость ветра в м/с - средняя за 10 мин, порывы в срок и между сроками (в фигурных скобках) и направление, откуда дует ветер: С - северный, СВ - северо-восточный, В - восточный, ЮВ - юго-восточный, Ю - южный, ЮЗ - юго-западный, З - западный, СЗ - северо-западный.
Видимость - горизонтальная дальность видимости в метрах или километрах. При видимости от 1 до 10 км при отсутствии осадков обычно наблюдается дымка, при ухудшении видимости до 1 км и менее - туман. В сухую погоду видимость может ухудшаться дымом, пылью или мглою.
Явления - указаны атмосферные явления, наблюдавшиеся в срок или в последний час перед сроком; фигурными скобками обозначены явления, наблюдавшиеся между сроками (за 1-3 часа до срока); квадратными скобками обозначены град или гололедные отложения с указанием их диаметра в мм.
Облачность - указаны через наклонную черту общая и нижняя облачность в баллах и высота нижней границы облаков в метрах; квадратными скобками обозначены формы облаков: Ci - перистые, Cs - перисто-слоистые, Cc - перисто-кучевые, Ac - высококучевые, As - высокослоистые, Sc - слоисто-кучевые, Ns - слоисто-дождевые, Cu - кучевые, Cb - кучево-дождевые. Подробнее классификацию облаков см. в Атласе облаков (PDF).
T - Температура воздуха - температура, измеренная на высоте 2 м над землей.
Td - Температура точки росы - температура, при понижении до которой содержащийся в воздухе водяной пар достигнет насыщения.
f - Относительная влажность воздуха - влажноcть воздуха, измеренная на высоте 2 м над землей.
Te - Эффективная температура - температура, которую ощущает одетый по сезону человек в тени. Характеристика душности погоды. При расчете учитывается влияние влажности воздуха и скорости ветра на теплоощущения человека.
Tes - Эффективная температура на солнце - температура, которую ощущает человек, с поправкой на солнечный нагрев. Характеристика знойности погоды. Зависит от высоты солнца над горизонтом, облачности и скорости ветра. Ночью, в пасмурную погоду, а также при ветре 12 м/с и более поправка равна нулю.
P - Атмосферное давление - приведенное к уровню моря атмосферное давление.
Po - Атмосферное давление - измеренное на уровне метеостанции атмосферное давление.
Tmin - Минимальная температура - минимум температуры воздуха на высоте 2 м над землей.
Tmax - Максимальная температура - максимум температуры воздуха на высоте 2 м над землей.
R - Количество осадков - Количество выпавших осадков за период времени, мм. При наведении курсора мыши на число - период времени, за который выпало указанное количество осадков.
R24 - Количество осадков - Количество выпавших осадков за 24 часа, мм.
S - Снежный покров - Высота снежного покрова, см. При наведении курсора мыши на число - состояние снежного покрова и степень покрытия местности в баллах.